Temp
-8 -7 -7 -7 -6 -5 -5 -5 -6 -6 -5 -5 -5 -5 -4 -3 -3 -2 -2 -2 -2 -2 -2 -2 -2 -2 -2 -1 -1 -1 -1 -0 -0 -0 -0 -0 -0 0 0 1 1 1 1 1 1 1 1 1 1 1 2 2
-9 -8 -8 -8 -7 -7 -6 -6 -6 -6 -6 -6 -6 -6 -5 -4 -3 -3 -3 -3 -2 -2 -2 -2 -2 -2 -2 -2 -1 -1 -1 -1 -1 -1 -0 -0 -0 -0 -0 0 0 1 1 0 0 0 1 1 1 1 1 1
-10 -10 -9 -9 -9 -8 -8 -7 -7 -7 -7 -7 -6 -6 -6 -6 -5 -4 -4 -3 -3 -3 -2 -2 -2 -2 -2 -2 -2 -2 -1 -1 -1 -1 -0 -0 -0 -0 -0 -0 -0 0 0 0 0 0 0 0 0 0 1 1
-11 -10 -10 -10 -10 -10 -9 -8 -8 -7 -7 -7 -7 -7 -7 -7 -6 -5 -5 -4 -4 -4 -3 -3 -2 -2 -2 -2 -2 -2 -2 -1 -1 -1 -1 -1 -0 -0 -0 -0 -1 -0 -0 -0 0 0 0 -0 -0 0 0 1
-11 -11 -11 -11 -11 -10 -10 -10 -9 -9 -8 -7 -7 -7 -7 -7 -7 -7 -6 -5 -5 -5 -4 -4 -3 -3 -2 -2 -2 -2 -2 -1 -1 -1 -1 -1 -1 -1 -1 -1 -1 -1 -1 -0 -0 -0 -0 -0 -0 -0 -0 0
-12 -12 -12 -12 -11 -11 -11 -11 -10 -10 -9 -9 -8 -8 -8 -8 -7 -7 -7 -6 -6 -5 -5 -5 -4 -3 -3 -3 -2 -2 -2 -2 -2 -1 -1 -1 -1 -1 -1 -1 -1 -1 -1 -1 -0 -0 -0 -0 -0 -0 -0 0
-13 -12 -12 -12 -12 -12 -12 -11 -11 -11 -11 -10 -9 -9 -8 -8 -8 -8 -7 -7 -7 -6 -6 -5 -5 -4 -4 -3 -3 -3 -2 -2 -2 -2 -2 -1 -1 -1 -1 -1 -1 -1 -1 -1 -1 -1 -1 -1 -0 -0 -0 0
-13 -13 -13 -12 -12 -12 -12 -12 -12 -12 -11 -11 -10 -10 -9 -9 -9 -8 -8 -8 -7 -7 -7 -6 -6 -5 -5 -4 -3 -3 -3 -3 -3 -2 -2 -2 -2 -2 -1 -1 -1 -1 -1 -1 -1 -1 -1 -1 -1 -1 -1 -0
-13 -12 -12 -12 -12 -12 -12 -12 -12 -12 -12 -12 -11 -11 -10 -10 -9 -9 -9 -8 -8 -8 -7 -7 -7 -6 -6 -5 -4 -4 -3 -3 -3 -3 -3 -3 -2 -2 -2 -2 -1 -1 -1 -1 -1 -1 -1 -1 -1 -1 -1 -0
-13 -12 -12 -12 -12 -12 -12 -12 -12 -12 -12 -12 -12 -12 -11 -11 -10 -10 -9 -9 -9 -8 -8 -8 -7 -7 -6 -6 -5 -5 -4 -4 -3 -3 -3 -3 -3 -2 -2 -2 -2 -2 -2 -1 -1 -1 -1 -1 -1 -1 -1 -1
-13 -13 -13 -13 -12 -12 -12 -12 -12 -12 -12 -12 -12 -12 -12 -11 -11 -11 -10 -10 -9 -9 -9 -8 -8 -8 -7 -7 -6 -6 -5 -5 -4 -4 -4 -3 -3 -3 -3 -2 -2 -2 -2 -2 -2 -1 -1 -2 -2 -1 -1 -1
-13 -13 -13 -13 -13 -13 -13 -12 -12 -12 -12 -12 -12 -12 -12 -12 -11 -11 -11 -11 -10 -10 -9 -9 -9 -8 -8 -7 -7 -6 -6 -5 -5 -5 -5 -4 -4 -4 -3 -3 -3 -3 -2 -2 -2 -1 -1 -2 -2 -2 -2 -2
-13 -13 -13 -13 -13 -13 -13 -13 -13 -13 -12 -12 -12 -12 -12 -12 -12 -12 -11 -11 -11 -11 -10 -10 -9 -9 -9 -8 -8 -7 -6 -6 -5 -5 -5 -5 -5 -4 -4 -3 -3 -3 -3 -3 -2 -2 -2 -2 -2 -2 -2 -2
-13 -13 -13 -13 -12 -12 -12 -13 -13 -13 -13 -13 -13 -12 -12 -12 -12 -11 -11 -12 -12 -11 -11 -11 -10 -10 -9 -9 -8 -8 -7 -7 -6 -6 -6 -6 -6 -6 -5 -4 -4 -4 -4 -3 -3 -3 -2 -2 -2 -2 -2 -2
-13 -13 -13 -13 -13 -13 -12 -12 -12 -13 -13 -13 -13 -13 -13 -13 -12 -12 -11 -11 -12 -12 -11 -11 -11 -11 -10 -10 -9 -8 -8 -7 -7 -7 -6 -6 -6 -6 -6 -5 -5 -5 -4 -4 -4 -3 -2 -2 -2 -2 -2 -2
-13 -13 -13 -13 -13 -13 -13 -13 -12 -12 -12 -13 -13 -13 -13 -13 -13 -12 -12 -12 -11 -12 -12 -12 -11 -11 -11 -10 -10 -9 -9 -8 -8 -7 -7 -7 -6 -6 -6 -6 -6 -5 -5 -5 -4 -4 -3 -3 -2 -2 -2 -2
-13 -13 -13 -13 -14 -14 -14 -14 -14 -13 -13 -13 -13 -13 -13 -13 -13 -13 -12 -12 -12 -12 -11 -11 -11 -11 -11 -11 -11 -10 -10 -9 -9 -8 -8 -8 -7 -7 -7 -7 -6 -6 -6 -6 -5 -5 -4 -3 -3 -3 -2 -2
-14 -14 -14 -14 -15 -15 -15 -14 -15 -14 -14 -14 -13 -13 -13 -12 -12 -13 -12 -12 -12 -12 -12 -11 -11 -11 -11 -11 -11 -11 -10 -10 -9 -9 -8 -8 -8 -8 -7 -7 -7 -6 -6 -6 -6 -5 -4 -4 -3 -3 -3 -3
-14 -14 -14 -15 -15 -16 -16 -15 -15 -15 -15 -15 -14 -14 -13 -13 -13 -12 -12 -12 -12 -12 -12 -12 -11 -11 -11 -11 -11 -11 -11 -10 -10 -9 -9 -9 -9 -8 -8 -8 -8 -7 -6 -6 -6 -5 -5 -4 -4 -3 -4 -3
-15 -15 -15 -15 -15 -16 -16 -16 -16 -16 -15 -15 -15 -14 -14 -13 -13 -13 -12 -12 -12 -12 -12 -12 -12 -11 -11 -11 -11 -11 -11 -11 -11 -10 -10 -10 -9 -9 -9 -9 -8 -8 -7 -7 -6 -6 -5 -5 -4 -4 -4 -4
-15 -15 -15 -15 -15 -16 -16 -17 -17 -16 -16 -15 -15 -15 -14 -14 -14 -14 -13 -13 -13 -12 -12 -12 -12 -11 -11 -11 -11 -11 -11 -11 -11 -11 -10 -10 -10 -9 -9 -9 -9 -9 -8 -7 -7 -6 -6 -5 -5 -4 -4 -4
-15 -15 -15 -15 -15 -16 -16 -16 -17 -17 -17 -16 -16 -16 -15 -15 -14 -14 -14 -14 -14 -13 -13 -12 -12 -12 -11 -11 -11 -11 -11 -11 -11 -11 -11 -11 -11 -10 -10 -9 -9 -9 -9 -8 -8 -7 -6 -6 -5 -5 -5 -4
-14 -15 -15 -15 -15 -16 -16 -16 -17 -17 -18 -17 -17 -16 -16 -15 -15 -14 -14 -14 -14 -14 -14 -13 -13 -12 -12 -11 -11 -11 -11 -11 -11 -11 -11 -11 -11 -11 -10 -10 -10 -9 -9 -9 -8 -8 -7 -6 -6 -5 -5 -5
-14 -15 -15 -15 -15 -16 -16 -16 -17 -17 -17 -18 -17 -17 -16 -15 -15 -14 -15 -15 -15 -14 -14 -14 -14 -13 -13 -12 -12 -11 -11 -11 -11 -11 -11 -11 -11 -11 -11 -10 -10 -10 -9 -9 -9 -9 -8 -7 -6 -5 -5 -5
-14 -15 -15 -15 -15 -15 -15 -16 -16 -16 -17 -17 -17 -17 -16 -15 -15 -15 -15 -15 -15 -15 -15 -15 -14 -14 -14 -13 -13 -12 -11 -11 -11 -11 -11 -11 -11 -11 -11 -11 -11 -10 -10 -9 -9 -9 -9 -8 -7 -6 -5 -5
-14 -15 -15 -15 -15 -15 -15 -15 -16 -16 -16 -17 -17 -17 -16 -16 -16 -15 -15 -15 -15 -15 -15 -15 -15 -14 -14 -14 -13 -13 -12 -11 -11 -11 -11 -11 -11 -11 -11 -10 -11 -11 -10 -10 -10 -9 -9 -8 -8 -7 -6 -6
-14 -15 -15 -15 -15 -15 -15 -15 -15 -15 -16 -16 -17 -17 -17 -17 -17 -16 -16 -16 -16 -16 -15 -15 -15 -14 -14 -14 -14 -13 -13 -12 -12 -11 -11 -11 -11 -11 -11 -10 -10 -11 -11 -10 -10 -10 -9 -9 -9 -8 -7 -7
-15 -15 -15 -15 -15 -15 -15 -15 -15 -15 -15 -16 -16 -17 -18 -18 -17 -17 -17 -16 -16 -16 -15 -15 -14 -14 -14 -14 -14 -14 -14 -13 -13 -12 -12 -11 -11 -11 -11 -10 -11 -11 -11 -11 -10 -10 -10 -10 -9 -9 -8 -8
-15 -15 -15 -15 -15 -15 -16 -16 -16 -15 -15 -15 -16 -16 -17 -17 -17 -17 -16 -16 -16 -16 -16 -15 -15 -15 -15 -14 -14 -14 -14 -14 -14 -13 -13 -12 -12 -11 -11 -10 -10 -11 -11 -11 -11 -11 -10 -10 -10 -9 -9 -9
-14 -15 -15 -15 -15 -15 -15 -16 -16 -16 -16 -16 -16 -16 -16 -16 -17 -17 -16 -16 -16 -16 -16 -16 -16 -15 -15 -15 -14 -14 -14 -14 -14 -14 -14 -13 -13 -12 -12 -11 -10 -10 -11 -11 -11 -11 -10 -10 -10 -9 -9 -9
-14 -15 -15 -15 -15 -15 -15 -16 -16 -16 -16 -16 -16 -16 -16 -17 -17 -17 -17 -17 -17 -17 -16 -16 -16 -16 -16 -15 -15 -15 -14 -14 -14 -14 -14 -14 -14 -13 -13 -12 -11 -11 -11 -11 -11 -11 -11 -10 -10 -10 -10 -10
Height
3094 3093 3092 3092 3090 3089 3086 3084 3082 3081 3081 3080 3079 3078 3080 3081 3082 3083 3083 3084 3085 3086 3087 3086 3087 3087 3089 3089 3090 3091 3091 3092 3093 3094 3095 3098 3100 3102 3104 3105 3107 3107 3108 3109 3109 3110 3111 3113 3114 3115 3116 3117
3089 3088 3087 3086 3086 3085 3083 3081 3079 3077 3076 3076 3075 3075 3076 3076 3076 3077 3078 3079 3080 3082 3083 3082 3083 3084 3085 3085 3086 3087 3088 3088 3089 3090 3091 3093 3095 3098 3100 3102 3103 3104 3104 3105 3106 3107 3108 3109 3110 3112 3113 3115
3085 3084 3083 3082 3081 3080 3079 3077 3076 3074 3072 3071 3071 3072 3072 3072 3072 3072 3073 3074 3075 3077 3078 3078 3079 3079 3081 3082 3083 3083 3084 3084 3085 3086 3087 3089 3091 3093 3096 3098 3099 3100 3101 3101 3102 3103 3103 3105 3106 3108 3110 3111
3081 3080 3079 3078 3077 3076 3075 3073 3072 3070 3069 3068 3067 3068 3067 3067 3068 3069 3069 3069 3070 3072 3073 3074 3074 3075 3076 3078 3079 3080 3079 3080 3081 3082 3083 3085 3087 3088 3091 3093 3094 3096 3097 3098 3098 3099 3099 3100 3102 3104 3106 3108
3077 3076 3075 3074 3073 3072 3071 3070 3068 3067 3065 3064 3064 3064 3063 3062 3063 3064 3065 3066 3067 3068 3068 3069 3070 3071 3072 3073 3074 3074 3075 3076 3077 3078 3079 3080 3082 3084 3086 3088 3089 3091 3093 3094 3095 3096 3096 3097 3098 3100 3102 3104
3073 3072 3071 3070 3069 3068 3067 3066 3065 3063 3062 3061 3061 3060 3060 3059 3059 3059 3060 3062 3063 3063 3064 3064 3065 3066 3067 3068 3069 3069 3070 3071 3072 3073 3074 3076 3078 3080 3082 3083 3085 3086 3088 3090 3091 3092 3092 3093 3094 3096 3097 3099
3068 3067 3066 3065 3065 3064 3063 3063 3062 3060 3059 3058 3057 3057 3056 3056 3056 3056 3056 3057 3059 3059 3059 3059 3060 3061 3062 3063 3064 3065 3066 3066 3067 3068 3069 3071 3073 3075 3077 3078 3080 3081 3083 3085 3087 3088 3088 3089 3090 3092 3093 3094
3063 3062 3061 3061 3060 3059 3059 3058 3058 3056 3056 3055 3054 3054 3053 3053 3052 3052 3053 3053 3054 3055 3055 3055 3056 3056 3056 3057 3059 3060 3061 3062 3063 3064 3065 3066 3068 3070 3072 3073 3075 3076 3078 3080 3081 3083 3084 3085 3086 3088 3089 3090
3059 3058 3057 3056 3055 3054 3054 3053 3053 3052 3051 3051 3050 3050 3050 3049 3049 3049 3049 3049 3050 3051 3051 3052 3052 3052 3052 3053 3054 3055 3056 3057 3058 3059 3060 3061 3063 3066 3067 3069 3070 3072 3073 3075 3077 3078 3080 3081 3083 3083 3084 3086
3055 3054 3053 3051 3050 3050 3049 3048 3048 3048 3047 3046 3046 3045 3045 3046 3045 3045 3045 3045 3046 3046 3047 3047 3048 3048 3048 3049 3049 3050 3052 3053 3054 3054 3055 3056 3058 3061 3063 3065 3066 3068 3069 3071 3073 3074 3075 3076 3078 3079 3080 3082
3051 3049 3048 3047 3046 3045 3044 3043 3043 3042 3042 3041 3041 3040 3040 3040 3040 3041 3041 3041 3041 3042 3043 3043 3043 3044 3044 3044 3045 3046 3047 3048 3049 3050 3051 3052 3054 3056 3058 3060 3062 3064 3065 3067 3069 3071 3071 3072 3074 3076 3076 3078
3046 3045 3044 3043 3041 3040 3039 3038 3037 3037 3037 3036 3036 3035 3035 3034 3034 3035 3035 3036 3036 3037 3038 3038 3039 3039 3040 3040 3041 3041 3042 3043 3044 3045 3046 3047 3049 3051 3053 3055 3057 3059 3061 3062 3062 3065 3067 3068 3069 3071 3072 3073
3040 3039 3038 3037 3037 3036 3035 3034 3032 3031 3031 3031 3031 3030 3029 3029 3028 3029 3030 3030 3030 3031 3032 3033 3034 3035 3035 3036 3036 3037 3037 3038 3039 3040 3041 3043 3044 3046 3049 3050 3052 3054 3057 3058 3058 3058 3060 3062 3064 3066 3068 3069
3035 3034 3032 3031 3031 3031 3030 3028 3027 3026 3025 3025 3025 3025 3024 3023 3023 3023 3024 3024 3025 3025 3026 3027 3028 3029 3030 3031 3031 3032 3033 3034 3035 3036 3037 3038 3039 3041 3043 3045 3047 3048 3051 3053 3055 3055 3055 3055 3058 3061 3063 3064
3031 3029 3027 3026 3025 3024 3023 3022 3021 3021 3020 3019 3019 3019 3019 3018 3018 3018 3018 3019 3020 3020 3020 3021 3022 3023 3024 3025 3026 3027 3028 3029 3030 3031 3032 3032 3034 3036 3038 3040 3042 3043 3045 3048 3050 3052 3053 3052 3052 3055 3058 3059
3026 3024 3022 3021 3019 3018 3017 3016 3015 3014 3014 3013 3013 3013 3013 3013 3012 3012 3012 3013 3014 3014 3015 3016 3016 3018 3018 3019 3021 3022 3023 3024 3025 3026 3027 3027 3028 3030 3032 3035 3037 3038 3040 3043 3045 3047 3049 3050 3050 3050 3052 3054
3022 3019 3017 3015 3014 3012 3011 3010 3009 3008 3007 3006 3006 3006 3006 3006 3006 3006 3007 3007 3008 3008 3009 3010 3011 3012 3012 3014 3015 3016 3017 3019 3020 3021 3022 3023 3023 3025 3026 3028 3031 3033 3035 3037 3039 3041 3044 3047 3047 3046 3047 3048
3017 3015 3013 3010 3009 3007 3005 3004 3004 3003 3001 3000 2999 2999 2999 2999 2999 3000 3001 3001 3002 3003 3004 3004 3005 3006 3007 3008 3009 3010 3011 3013 3014 3015 3016 3018 3019 3020 3021 3022 3025 3028 3030 3032 3034 3036 3038 3041 3043 3044 3044 3044
3013 3011 3008 3006 3004 3002 3000 2999 2998 2998 2997 2995 2993 2992 2992 2992 2992 2993 2994 2995 2996 2997 2998 2998 2999 3000 3001 3002 3003 3004 3005 3007 3008 3010 3011 3012 3013 3015 3016 3017 3018 3021 3024 3026 3029 3031 3033 3036 3038 3040 3041 3041
3009 3007 3004 3002 3000 2997 2996 2994 2993 2992 2991 2990 2989 2987 2987 2986 2986 2986 2987 2988 2989 2991 2992 2992 2993 2994 2996 2997 2998 2999 3000 3001 3003 3004 3005 3006 3007 3009 3011 3012 3013 3014 3017 3020 3023 3026 3028 3030 3032 3034 3037 3038
3005 3003 3000 2998 2995 2993 2991 2990 2988 2986 2985 2985 2984 2983 2982 2981 2981 2981 2981 2982 2983 2984 2985 2986 2987 2989 2990 2991 2992 2993 2995 2996 2997 2998 2999 3001 3002 3003 3005 3007 3008 3009 3010 3013 3017 3020 3022 3025 3027 3029 3032 3034
3002 2999 2996 2994 2991 2989 2987 2985 2983 2981 2980 2979 2979 2979 2978 2977 2976 2976 2976 2977 2977 2977 2978 2979 2981 2982 2984 2985 2985 2987 2988 2989 2991 2992 2993 2995 2997 2997 2998 3001 3002 3004 3005 3006 3009 3014 3017 3020 3022 3024 3027 3030
2998 2995 2992 2989 2987 2985 2982 2980 2978 2977 2975 2974 2973 2973 2973 2973 2972 2972 2972 2972 2972 2972 2973 2973 2974 2975 2976 2978 2979 2980 2982 2983 2984 2986 2987 2989 2991 2993 2993 2994 2996 2998 2999 3001 3003 3007 3011 3014 3017 3019 3022 3025
2994 2991 2988 2985 2983 2981 2978 2976 2974 2972 2970 2969 2968 2968 2968 2968 2968 2968 2968 2968 2969 2969 2968 2969 2969 2969 2970 2970 2972 2974 2975 2976 2978 2979 2981 2983 2984 2987 2988 2989 2990 2992 2993 2995 2997 3000 3003 3007 3011 3014 3017 3020
2990 2987 2984 2981 2979 2976 2974 2973 2970 2968 2966 2964 2963 2962 2962 2963 2964 2965 2965 2965 2965 2965 2964 2964 2964 2964 2964 2965 2966 2967 2968 2970 2971 2973 2974 2976 2978 2980 2982 2984 2985 2986 2987 2989 2991 2993 2996 3000 3004 3007 3011 3014
2986 2983 2980 2978 2975 2972 2970 2968 2967 2965 2963 2960 2958 2957 2957 2959 2961 2961 2962 2961 2961 2960 2960 2960 2960 2959 2959 2959 2960 2961 2962 2963 2965 2966 2968 2970 2971 2973 2975 2977 2980 2981 2982 2983 2984 2986 2990 2995 2998 3000 3003 3006
2983 2980 2977 2974 2972 2969 2966 2964 2963 2961 2959 2957 2955 2954 2954 2955 2957 2958 2958 2957 2957 2956 2955 2955 2954 2954 2954 2954 2954 2955 2956 2957 2958 2960 2961 2963 2964 2966 2968 2970 2974 2976 2977 2977 2979 2982 2984 2988 2991 2994 2997 2998
2981 2977 2974 2972 2969 2966 2963 2961 2960 2958 2956 2954 2952 2951 2951 2952 2952 2953 2953 2953 2952 2951 2950 2950 2949 2949 2949 2949 2949 2950 2951 2952 2952 2953 2954 2956 2957 2959 2961 2963 2966 2969 2971 2972 2974 2976 2978 2980 2984 2988 2991 2991
2978 2975 2972 2969 2967 2964 2961 2958 2956 2955 2954 2952 2950 2949 2948 2948 2948 2948 2948 2948 2948 2947 2946 2946 2945 2945 2944 2944 2944 2944 2945 2946 2946 2947 2948 2949 2950 2951 2953 2956 2959 2962 2965 2966 2967 2969 2972 2975 2976 2979 2984 2985
2976 2973 2970 2967 2964 2962 2960 2957 2955 2953 2952 2950 2948 2947 2946 2946 2946 2945 2945 2945 2944 2943 2943 2942 2942 2941 2940 2939 2939 2939 2939 2940 2940 2941 2942 2942 2944 2945 2946 2948 2951 2955 2958 2959 2961 2963 2965 2967 2969 2972 2977 2979
2975 2972 2969 2965 2962 2960 2958 2956 2954 2951 2950 2948 2947 2946 2945 2944 2943 2943 2942 2942 2941 2940 2940 2939 2938 2937 2936 2936 2935 2934 2934 2934 2934 2935 2935 2936 2937 2939 2940 2941 2943 2947 2950 2953 2955 2956 2957 2960 2963 2967 2970 2972
Wind_Speed
39 40 40 41 43 46 48 49 48 46 45 44 45 44 39 40 42 41 37 30 30 32 33 37 39 38 36 34 33 33 34 34 35 36 35 34 33 31 30 29 29 29 28 28 29 30 29 29 30 31 30 30
37 39 39 39 40 42 44 46 47 46 44 43 41 41 39 39 41 43 44 41 38 36 33 33 37 39 39 39 37 35 36 35 36 36 36 36 35 33 32 31 31 31 31 30 28 28 30 30 31 31 30 29
35 37 38 38 38 38 40 42 44 44 44 43 41 39 37 37 39 41 43 44 43 42 38 33 32 34 37 40 39 37 37 37 37 37 38 38 38 36 33 32 33 34 34 32 30 29 29 31 32 30 30 30
34 35 36 37 37 37 37 38 40 41 42 42 41 39 38 36 36 38 41 42 43 44 44 40 35 34 35 38 38 37 38 39 39 40 40 40 40 39 36 35 36 37 35 34 33 32 31 32 31 31 32 32
33 34 35 36 36 37 36 36 37 38 40 41 41 39 38 38 37 36 37 39 41 43 45 46 43 39 38 38 37 36 37 37 40 41 40 40 40 40 38 37 39 39 37 35 34 34 34 34 32 32 33 33
33 33 34 35 36 36 36 36 36 37 38 39 39 39 38 37 37 37 36 36 38 41 43 46 47 46 43 42 39 36 36 34 35 38 39 39 38 39 40 41 42 41 38 36 36 36 36 36 35 34 35 35
33 34 34 35 35 36 37 36 36 36 37 38 38 38 38 37 36 36 37 36 36 38 40 43 46 48 47 47 44 40 37 34 32 33 35 36 38 39 41 45 45 43 40 38 38 38 37 37 37 36 37 38
33 34 34 34 35 35 36 37 37 37 36 37 37 38 38 37 36 36 36 36 36 36 37 39 43 46 47 49 49 46 43 39 35 33 31 32 34 36 38 41 43 43 42 40 40 41 39 38 37 36 37 37
34 34 35 34 35 34 35 35 36 38 38 37 37 37 37 37 37 36 35 35 36 36 36 37 39 42 45 47 49 50 50 48 44 40 36 33 32 33 34 35 37 40 42 42 42 43 42 40 38 37 37 37
35 35 36 36 36 36 36 35 35 36 38 39 39 38 38 37 37 36 35 35 35 36 36 37 38 40 42 45 47 50 52 53 52 49 46 42 38 36 34 34 35 39 42 42 41 43 45 43 41 39 38 37
38 37 37 37 38 38 38 38 37 36 35 37 38 39 39 38 38 37 35 35 35 35 36 37 38 39 40 43 45 48 51 53 54 54 53 50 47 45 41 37 35 37 41 44 44 45 45 46 45 43 41 40
42 41 40 40 39 39 40 40 40 39 37 36 37 38 38 38 38 37 37 36 36 36 36 37 38 39 39 41 43 45 48 51 52 53 54 53 52 51 50 47 42 37 38 43 48 49 49 48 48 47 46 43
40 41 42 43 43 42 42 42 42 42 41 39 38 38 38 39 39 39 38 38 38 38 38 38 38 39 40 40 41 42 44 47 49 51 52 52 52 52 53 53 52 46 40 39 43 48 52 53 52 52 49 46
35 36 39 41 43 44 45 44 44 43 43 43 42 40 39 40 41 40 40 39 39 39 40 40 40 40 41 41 41 41 42 43 45 48 49 50 51 51 52 53 54 53 49 45 41 41 49 54 54 54 53 50
33 34 35 36 37 40 42 45 46 45 44 44 44 43 42 41 42 42 41 40 39 40 41 41 41 41 41 42 42 42 42 42 43 44 46 48 50 51 52 52 52 52 51 50 48 43 42 49 53 54 54 53
34 34 35 34 34 33 34 37 41 44 44 45 44 45 44 44 43 43 43 42 41 40 40 41 42 42 43 43 43 43 43 43 43 43 43 46 48 50 51 52 53 51 48 48 50 49 45 45 50 53 54 53
34 35 36 36 36 34 33 32 34 37 40 42 44 45 46 46 45 45 45 44 43 42 41 41 41 42 44 44 44 44 44 44 44 43 43 44 46 48 50 51 52 52 50 48 50 51 49 46 46 49 52 54
35 35 36 37 37 37 37 34 32 33 34 36 40 42 44 45 46 47 46 46 45 44 43 43 42 42 43 44 45 46 45 45 45 45 45 44 44 46 47 49 50 53 53 49 48 51 52 50 47 43 45 52
36 36 36 37 38 38 39 38 35 33 31 31 34 38 40 42 44 46 47 47 47 46 45 45 44 44 43 44 45 46 47 47 47 46 46 46 46 45 46 47 48 50 54 53 49 49 52 54 52 47 43 47
36 36 36 37 37 38 39 39 38 35 33 31 31 33 35 37 40 43 46 47 48 47 47 47 47 46 45 45 44 45 47 48 48 48 48 48 48 47 46 46 47 47 50 54 53 50 51 55 57 55 48 45
36 35 35 35 36 37 37 38 38 37 35 33 31 31 31 31 32 35 38 42 45 47 47 48 49 48 48 47 46 46 46 47 48 49 50 49 49 50 49 47 48 47 48 51 54 54 53 52 56 59 55 48
35 33 32 32 33 34 35 35 36 38 38 37 34 32 31 29 28 27 29 33 37 41 44 46 48 49 50 49 48 48 47 47 47 49 50 51 50 51 51 50 49 49 49 49 50 55 57 54 54 57 57 53
34 32 31 30 30 31 32 33 34 36 39 39 38 35 33 31 28 26 25 26 29 33 37 41 44 47 49 50 51 50 49 49 49 49 49 51 51 52 53 53 52 51 51 51 50 51 56 58 56 55 56 56
32 31 30 29 29 29 30 30 32 34 37 40 40 38 36 33 30 27 25 25 25 27 30 32 36 40 44 48 51 52 52 51 51 50 50 50 51 52 53 54 54 54 53 53 52 50 52 56 58 57 55 56
31 30 29 28 28 29 28 28 29 31 34 38 41 41 40 36 32 29 28 27 27 27 28 29 31 33 37 42 47 51 53 54 53 53 52 52 52 52 53 54 54 55 56 55 55 54 52 52 56 59 58 55
30 29 28 27 26 27 28 27 25 26 28 33 38 41 41 38 34 31 29 29 29 30 31 31 32 33 35 38 42 46 51 54 55 55 55 54 53 54 54 54 54 55 56 57 57 57 54 52 53 56 60 59
30 29 27 26 25 25 26 26 24 22 22 25 29 34 37 36 34 32 31 31 32 33 35 36 36 36 37 38 40 42 45 49 54 56 57 57 56 56 56 55 54 54 56 58 58 58 57 55 53 53 57 61
29 28 27 26 24 24 25 25 23 20 19 19 19 23 27 29 30 30 31 32 33 34 36 38 39 39 39 39 40 40 40 42 47 52 57 59 59 58 58 57 56 55 55 57 58 59 59 57 56 54 54 58
28 27 26 25 23 22 23 24 23 21 18 17 16 15 16 19 22 24 25 26 27 29 31 33 36 38 39 40 40 40 40 40 42 45 50 56 59 60 60 60 59 57 56 57 58 59 59 59 59 58 55 56
28 26 25 24 23 22 20 20 22 21 18 16 15 14 13 14 16 18 19 20 22 23 24 26 28 31 34 37 39 40 41 41 41 42 44 48 55 59 61 62 61 60 58 58 59 60 60 60 61 61 58 57
28 26 25 24 23 21 20 18 18 19 17 15 14 13 13 12 14 15 16 18 19 20 21 23 24 26 29 31 34 37 39 40 41 42 42 44 48 53 58 62 63 62 61 60 60 61 62 61 61 61 60 59
Wind_Direction
287 284 280 274 270 268 269 269 270 270 269 268 269 269 263 253 249 247 247 246 246 247 246 248 250 250 249 246 244 245 247 247 246 244 245 244 243 242 242 246 247 237 226 227 236 240 239 239 240 240 241 241
290 288 285 281 276 271 270 270 271 271 270 269 268 267 264 257 254 252 249 247 247 248 246 243 246 250 251 250 246 244 245 244 244 244 244 243 242 244 244 244 246 241 231 224 228 236 238 238 237 237 238 240
291 290 288 286 282 278 274 272 271 272 271 271 269 267 265 259 255 254 252 248 245 244 245 240 237 242 245 249 248 244 243 243 244 245 244 243 241 241 243 242 242 242 234 224 222 227 231 234 235 235 236 238
292 290 289 287 285 283 280 277 274 273 272 271 271 269 268 265 259 254 252 250 247 244 244 242 238 237 238 242 243 242 241 241 243 244 244 243 242 240 240 239 240 240 233 225 224 225 228 232 234 236 237 237
293 290 288 287 285 284 282 280 279 276 274 272 270 270 269 268 265 261 256 252 250 246 244 243 242 240 238 238 237 235 234 234 236 238 240 241 241 242 240 238 237 236 230 226 227 227 229 231 232 234 236 235
294 290 287 286 284 283 282 280 279 277 276 274 271 270 269 269 268 266 263 257 254 251 248 245 243 242 241 240 236 232 230 227 226 228 231 235 239 242 242 241 237 231 227 227 228 228 228 229 230 231 234 235
295 292 288 286 283 282 280 279 277 276 275 275 273 271 269 267 267 267 265 262 258 255 254 250 247 244 243 241 239 237 233 228 225 222 222 226 231 233 234 235 234 228 225 226 227 226 226 226 226 228 231 234
293 291 289 286 284 282 281 278 276 274 273 272 272 271 269 267 265 264 264 263 261 259 258 256 252 248 246 244 242 241 238 235 233 229 225 223 222 223 223 225 227 228 226 226 225 225 226 224 222 224 228 230
290 289 287 286 284 283 282 280 277 274 272 270 269 268 268 267 265 263 262 262 262 260 259 258 256 253 250 248 246 244 242 241 240 239 239 235 228 226 226 225 227 230 230 228 223 221 222 222 221 222 226 228
289 287 286 285 284 283 282 281 279 276 273 271 268 266 265 264 264 263 262 261 261 260 260 259 258 256 254 252 249 246 245 244 244 244 244 242 239 237 234 230 229 232 234 232 227 222 218 219 220 220 224 226
288 286 285 284 284 283 282 281 279 277 274 272 270 268 265 263 262 261 261 261 261 260 259 259 259 258 257 256 253 250 247 246 246 246 246 243 241 241 240 236 232 230 230 229 231 231 224 219 219 219 221 224
287 285 284 283 283 282 283 282 280 278 276 274 272 270 268 265 263 260 259 259 259 259 259 258 258 258 259 258 256 254 251 248 247 247 247 246 242 240 241 240 239 234 227 223 225 228 226 222 221 221 221 223
289 286 283 280 279 280 280 281 280 279 277 275 274 272 271 269 266 264 261 259 257 256 256 257 257 257 258 258 257 256 254 252 250 249 249 248 245 242 240 241 242 241 235 226 220 216 216 219 221 221 221 221
296 291 286 282 278 276 275 276 276 276 276 275 274 273 272 271 269 266 264 262 259 256 254 254 255 255 255 256 256 255 255 254 253 251 250 249 247 244 242 241 242 243 242 238 233 219 210 212 217 219 220 219
301 298 295 290 284 278 273 271 271 271 271 271 271 271 272 271 270 268 266 264 262 259 256 254 253 253 254 254 254 253 253 254 254 253 252 251 249 246 244 242 242 244 244 242 242 236 221 214 214 217 219 219
305 302 299 298 295 289 282 276 271 269 268 267 266 267 268 268 268 268 267 266 264 262 260 257 254 253 252 252 252 252 252 252 253 253 253 252 251 249 246 243 242 243 244 241 240 240 234 224 215 213 216 217
310 307 303 300 299 297 293 288 282 276 270 267 264 262 262 263 263 264 265 266 265 264 262 260 257 255 252 251 251 251 251 251 251 252 252 252 252 251 249 246 242 240 242 241 240 239 237 232 221 212 211 212
312 309 306 302 299 296 294 292 289 285 278 273 269 264 260 258 259 260 260 262 263 263 262 261 260 258 255 252 250 250 249 249 249 250 251 251 251 252 252 250 245 240 239 240 241 240 237 235 230 221 215 211
309 306 303 301 297 293 291 289 288 286 282 279 275 270 264 259 257 256 257 257 259 260 261 261 260 259 258 256 253 250 249 248 248 248 249 250 250 251 252 253 251 245 240 237 238 240 237 234 234 233 229 218
306 304 301 299 296 292 288 286 286 284 282 279 278 276 272 267 261 256 255 255 255 256 256 257 258 259 258 257 256 254 252 249 248 247 248 248 249 250 250 251 253 251 246 240 236 237 237 235 235 236 237 230
306 304 301 299 297 293 289 284 282 281 280 278 277 277 278 277 272 264 257 254 254 254 254 254 255 256 257 257 256 255 255 253 251 248 247 247 248 249 249 249 250 251 251 246 239 235 235 235 236 237 238 234
309 308 306 303 300 296 292 286 280 277 277 277 275 275 276 277 276 272 264 257 254 253 253 253 253 253 254 255 255 254 254 254 253 251 249 247 247 248 248 248 248 248 250 250 245 237 234 234 235 237 237 235
315 313 311 307 303 298 293 288 281 275 273 274 273 273 273 273 274 273 270 265 260 256 254 253 252 251 251 251 252 253 252 252 252 252 252 249 247 247 247 248 247 248 248 248 248 243 238 235 234 235 236 234
318 316 313 309 306 301 295 290 283 277 273 271 270 270 269 269 269 270 271 271 269 266 263 259 256 254 251 249 249 249 250 251 251 251 251 251 250 248 247 247 248 247 248 247 247 246 242 239 236 234 233 232
321 318 316 313 310 306 302 297 290 284 278 272 268 267 266 266 266 268 270 272 273 273 273 270 266 261 256 252 249 248 247 248 250 250 250 250 250 250 248 247 248 247 248 248 247 246 244 242 240 237 234 232
325 323 321 318 315 313 311 309 304 295 285 276 272 269 268 268 269 270 272 273 274 275 274 272 269 266 262 257 253 249 247 246 247 248 249 249 249 249 249 248 248 248 248 248 248 247 245 243 242 240 239 236
329 327 324 321 319 319 318 318 316 308 297 286 278 273 270 269 269 271 272 272 272 271 270 268 266 265 264 261 259 255 251 248 246 245 246 247 248 247 248 248 247 247 248 248 248 248 247 245 242 240 241 241
332 330 327 324 322 321 320 320 320 317 311 303 290 276 270 268 268 269 270 269 269 268 267 267 267 266 265 264 263 260 257 254 250 247 245 245 246 246 246 246 246 245 246 247 248 247 247 247 245 241 240 241
334 332 329 326 324 322 321 320 320 321 319 315 308 294 279 273 271 271 272 273 273 272 270 269 268 266 265 264 263 262 260 258 255 251 248 245 244 245 245 244 243 243 243 245 246 247 246 246 246 243 241 240
336 334 331 329 327 324 323 321 319 321 322 320 316 312 301 290 285 283 283 283 282 280 277 274 271 268 266 264 263 262 261 260 258 255 252 249 246 244 244 244 242 240 240 241 243 245 245 245 245 244 243 241
338 335 332 331 331 329 327 326 322 323 326 326 322 319 314 305 297 294 292 291 289 288 286 283 280 276 273 270 267 265 264 262 260 258 255 253 250 246 245 244 244 241 238 237 239 241 243 244 244 244 244 243